Date String (YYYY-MM-DD hh:mm:ss) UTC,Instrument flags,Ambient pressure (hPa),Sample flow (lpm),Bypass flow (lpm),Sample temperature (°C),Ambient temperature (°C),ASC tube jacket temperature (°C),LED temperature (°C),Box temperature (°C),Sample RH (%),Span deviation,Mass concentration (μg/m³),Mass concentration (μg/m³),Mass concentration (μg/m³)
DateTimeUTC,F1_M11,P_M11,Q1_M11,Q2_M11,T1_M11,T2_M11,T3_M11,T4_M11,T5_M11,U1_M11,ZSPAN_M11,X0_M11,X2_M11,X1_M11
2021-12-31 22:00:00,,0809.9,5.00,0.00,21.0,20.4,00.0,30.2,22.5,18.5,0000.0,0003.21,0001.57,0000.97
2021-12-31 22:01:00,,0809.9,5.00,0.00,21.1,20.9,00.0,30.2,22.7,18.4,0000.0,0003.16,0001.56,0001.00
2021-12-31 22:02:00,,0810.0,5.01,0.00,21.2,21.8,00.0,30.3,23.0,18.2,0000.0,0002.84,0001.49,0001.01
2021-12-31 22:03:00,,0810.0,4.99,0.00,21.4,22.7,00.0,30.3,23.4,18.0,0000.0,0002.78,0001.49,0001.03
2021-12-31 22:04:00,,0810.0,5.00,0.00,21.6,22.9,00.0,30.4,23.5,17.7,0000.0,0002.67,0001.48,0001.05
2021-12-31 22:05:00,,0810.0,5.01,0.00,21.6,22.4,00.0,30.4,23.3,17.7,0000.0,0002.57,0001.45,0001.06
2021-12-31 22:06:00,,0810.0,4.99,0.00,21.5,22.0,00.0,30.4,23.1,17.7,0000.0,0002.37,0001.42,0001.08
2021-12-31 22:07:00,,0810.0,5.00,0.00,21.4,21.6,00.0,30.4,23.0,17.7,0000.0,0002.25,0001.41,0001.11
2021-12-31 22:08:00,,0810.0,4.99,0.00,21.4,21.3,00.0,30.4,22.9,17.8,0000.0,0002.12,0001.39,0001.13
2021-12-31 22:09:00,,0810.0,5.00,0.00,21.3,21.0,00.0,30.4,22.8,17.8,0000.0,0002.11,0001.41,0001.16
2021-12-31 22:10:00,,0810.1,5.00,0.00,21.2,20.8,00.0,30.4,22.7,17.8,0000.0,0002.11,0001.43,0001.18
2021-12-31 22:11:00,,0810.1,5.00,0.00,21.2,20.6,00.0,30.4,22.5,17.9,0000.0,0002.09,0001.40,0001.19
2021-12-31 22:12:00,,0810.1,5.00,0.00,21.1,20.6,00.0,30.3,22.5,18.0,0000.0,0002.73,0001.41,0001.21
2021-12-31 22:13:00,,0810.1,5.00,0.00,21.2,21.3,00.0,30.4,22.8,17.9,0000.0,0002.83,0001.47,0001.25
2021-12-31 22:14:00,,0810.2,4.99,0.00,21.4,22.2,00.0,30.4,23.2,17.7,0000.0,0002.90,0001.52,0001.29
2021-12-31 22:15:00,,0810.2,5.01,0.00,21.5,22.6,00.0,30.4,23.4,17.5,0000.0,0002.86,0001.52,0001.31
2021-12-31 22:16:00,,0810.2,4.99,0.00,21.6,22.3,00.0,30.5,23.3,17.5,0000.0,0002.87,0001.54,0001.33
2021-12-31 22:17:00,,0810.2,5.02,0.00,21.5,22.0,00.0,30.5,23.2,17.5,0000.0,0002.88,0001.56,0001.34
2021-12-31 22:18:00,,0810.2,4.99,0.00,21.5,21.6,00.0,30.5,23.0,17.5,0000.0,0002.91,0001.57,0001.35
2021-12-31 22:19:00,,0810.2,5.01,0.00,21.4,21.3,00.0,30.5,22.9,17.6,0000.0,0002.93,0001.58,0001.35
2021-12-31 22:20:00,,0810.2,5.01,0.00,21.3,21.0,00.0,30.5,22.8,17.6,0000.0,0002.90,0001.56,0001.34
2021-12-31 22:21:00,,0810.2,4.99,0.00,21.3,20.9,00.0,30.4,22.7,17.7,0000.0,0002.88,0001.54,0001.32
2021-12-31 22:22:00,,0810.2,5.00,0.00,21.2,20.8,00.0,30.4,22.7,17.7,0000.0,0002.86,0001.54,0001.33
2021-12-31 22:23:00,,0810.3,4.99,0.00,21.2,20.6,00.0,30.4,22.6,17.8,0000.0,0002.20,0001.52,0001.33
2021-12-31 22:24:00,,0810.3,5.01,0.00,21.1,20.7,00.0,30.4,22.6,17.9,0000.0,0002.16,0001.55,0001.34
2021-12-31 22:25:00,,0810.3,4.99,0.00,21.2,21.5,00.0,30.4,22.9,17.7,0000.0,0002.08,0001.50,0001.30
2021-12-31 22:26:00,,0810.3,5.01,0.00,21.4,22.4,00.0,30.4,23.3,17.6,0000.0,0002.05,0001.48,0001.29
2021-12-31 22:27:00,,0810.3,5.00,0.00,21.6,22.6,00.0,30.5,23.4,17.4,0000.0,0002.03,0001.47,0001.27
2021-12-31 22:28:00,,0810.3,4.99,0.00,21.6,22.2,00.0,30.5,23.4,17.4,0000.0,0002.06,0001.46,0001.26
2021-12-31 22:29:00,,0810.3,5.00,0.00,21.5,21.9,00.0,30.5,23.2,17.4,0000.0,0002.12,0001.49,0001.25
2021-12-31 22:30:00,,0810.3,5.00,0.00,21.5,21.7,00.0,30.5,23.1,17.5,0000.0,0002.16,0001.52,0001.26
2021-12-31 22:31:00,,0810.3,4.99,0.00,21.5,21.4,00.0,30.5,23.0,17.5,0000.0,0002.21,0001.55,0001.28
2021-12-31 22:32:00,,0810.3,5.00,0.00,21.4,21.2,00.0,30.5,23.0,17.5,0000.0,0002.19,0001.55,0001.29
2021-12-31 22:33:00,,0810.3,5.00,0.00,21.4,21.0,00.0,30.5,22.9,17.5,0000.0,0002.13,0001.55,0001.29
2021-12-31 22:34:00,,0810.3,5.00,0.00,21.3,20.8,00.0,30.5,22.8,17.5,0000.0,0002.13,0001.56,0001.31
2021-12-31 22:35:00,,0810.4,4.99,0.00,21.3,20.6,00.0,30.4,22.7,17.5,0000.0,0002.02,0001.53,0001.30
2021-12-31 22:36:00,,0810.5,5.02,0.00,21.2,20.6,00.0,30.4,22.6,17.6,0000.0,0002.02,0001.53,0001.31
2021-12-31 22:37:00,,0810.6,5.00,0.00,21.3,21.2,00.0,30.4,22.9,17.5,0000.0,0002.10,0001.59,0001.35
2021-12-31 22:38:00,,0810.6,5.00,0.00,21.4,22.2,00.0,30.5,23.3,17.3,0000.0,0002.11,0001.60,0001.38
2021-12-31 22:39:00,,0810.6,5.00,0.00,21.6,22.7,00.0,30.5,23.5,17.2,0000.0,0002.04,0001.59,0001.39
2021-12-31 22:40:00,,0810.6,5.00,0.00,21.6,22.4,00.0,30.5,23.4,17.1,0000.0,0001.99,0001.58,0001.40
2021-12-31 22:41:00,,0810.6,5.00,0.00,21.6,22.0,00.0,30.5,23.3,17.1,0000.0,0001.95,0001.57,0001.41
2021-12-31 22:42:00,,0810.6,5.00,0.00,21.6,21.7,00.0,30.5,23.2,17.1,0000.0,0002.02,0001.60,0001.41
2021-12-31 22:43:00,,0810.7,5.00,0.00,21.5,21.5,00.0,30.5,23.1,17.2,0000.0,0002.03,0001.60,0001.42
2021-12-31 22:44:00,,0810.7,4.99,0.00,21.5,21.3,00.0,30.5,23.0,17.2,0000.0,0002.03,0001.59,0001.42
2021-12-31 22:45:00,,0810.7,5.01,0.00,21.4,21.2,00.0,30.5,23.0,17.2,0000.0,0002.03,0001.57,0001.39
2021-12-31 22:46:00,,0810.6,5.00,0.00,21.4,21.0,00.0,30.5,23.0,17.3,0000.0,0002.10,0001.56,0001.38
2021-12-31 22:47:00,,0810.6,4.99,0.00,21.4,20.9,00.0,30.5,22.9,17.3,0000.0,0002.08,0001.54,0001.36
2021-12-31 22:48:00,,0810.6,5.01,0.00,21.4,20.8,00.0,30.5,22.9,17.3,0000.0,0002.76,0001.53,0001.35
2021-12-31 22:49:00,,0810.6,5.00,0.00,21.3,20.8,00.0,30.5,22.9,17.3,0000.0,0003.01,0001.54,0001.34
2021-12-31 22:50:00,,0810.6,4.99,0.00,21.3,20.7,00.0,30.5,22.8,17.4,0000.0,0003.41,0001.56,0001.36
2021-12-31 22:51:00,,0810.6,5.01,0.00,21.3,20.7,00.0,30.4,22.8,17.4,0000.0,0003.58,0001.57,0001.37
2021-12-31 22:52:00,,0810.7,5.00,0.00,21.3,20.7,00.0,30.4,22.8,17.5,0000.0,0003.55,0001.56,0001.37
2021-12-31 22:53:00,,0810.8,5.01,0.00,21.3,21.5,00.0,30.4,23.0,17.4,0000.0,0003.45,0001.54,0001.38
2021-12-31 22:54:00,,0810.7,5.00,0.00,21.5,22.4,00.0,30.5,23.4,17.2,0000.0,0003.44,0001.55,0001.39
2021-12-31 22:55:00,,0810.6,5.01,0.00,21.7,22.8,00.0,30.6,23.6,17.1,0000.0,0003.46,0001.57,0001.43
2021-12-31 22:56:00,,0810.6,5.00,0.00,21.7,22.6,00.0,30.6,23.6,17.0,0000.0,0003.57,0001.62,0001.45
2021-12-31 22:57:00,,0810.6,4.99,0.00,21.7,22.3,00.0,30.6,23.5,17.0,0000.0,0003.48,0001.63,0001.47
2021-12-31 22:58:00,,0810.6,5.01,0.00,21.7,22.0,00.0,30.6,23.4,17.0,0000.0,0003.56,0001.67,0001.50
2021-12-31 22:59:00,,0810.6,4.98,0.00,21.7,21.8,00.0,30.6,23.3,17.0,0000.0,0003.00,0001.67,0001.50
